This is the latest recevied weather packets stored in our database for station/object KC9VAF. If no packets are shown the sender has not sent any weather packets the latest 10 day(s).
| Time | Temp. | Humidity | Pressure | Rain* | Wind** | Luminosity | Snow |
|---|---|---|---|---|---|---|---|
| 1778264250 | 18.89° C | 27% | 1009.2 hPa | 0 mm | - | 683 W/m² | - |
| 1778263947 | 17.78° C | 27% | 1009.3 hPa | 0 mm | - | 691 W/m² | - |
| 1778263643 | 18.33° C | 26% | 1009.4 hPa | 0 mm | - | 643 W/m² | - |
| 1778263340 | 18.33° C | 27% | 1009.5 hPa | 0 mm | - | 591 W/m² | - |
| 1778263037 | 18.89° C | 29% | 1009.3 hPa | 0 mm | - | 758 W/m² | - |
| 1778262734 | 18.89° C | 28% | 1009.6 hPa | 0 mm | - | 724 W/m² | - |
| 1778262432 | 18.33° C | 27% | 1009.4 hPa | 0 mm | - | 727 W/m² | - |
| 1778262129 | 18.33° C | 27% | 1009.6 hPa | 0 mm | - | 649 W/m² | - |
| 1778261825 | 17.78° C | 26% | 1009.8 hPa | 0 mm | - | 657 W/m² | - |
| 1778261521 | 18.33° C | 27% | 1010.1 hPa | 0 mm | - | 632 W/m² | - |
| 1778261218 | 17.78° C | 27% | 1009.9 hPa | 0 mm | - | 642 W/m² | - |
| 1778260915 | 18.33° C | 29% | 1009.9 hPa | 0 mm | - | 636 W/m² | - |
| 1778260611 | 17.22° C | 26% | 1010 hPa | 0 mm | - | 689 W/m² | - |
| 1778260307 | 16.67° C | 28% | 1010.4 hPa | 0 mm | - | 431 W/m² | - |
| 1778260005 | 17.78° C | 28% | 1010.1 hPa | 0 mm | - | 464 W/m² | - |
| 1778259702 | 17.78° C | 32% | 1010.2 hPa | 0 mm | - | 562 W/m² | - |
| 1778259399 | 17.78° C | 32% | 1010.2 hPa | 0 mm | - | 542 W/m² | - |
| 1778259096 | 17.78° C | 28% | 1010.5 hPa | 0 mm | - | 495 W/m² | - |
| 1778258793 | 17.78° C | 33% | 1010.5 hPa | 0 mm | - | 688 W/m² | - |
| 1778258490 | 17.78° C | 27% | 1010.6 hPa | 0 mm | - | 609 W/m² | - |
| 1778258187 | 17.78° C | 30% | 1010.7 hPa | 0 mm | - | 626 W/m² | - |
| 1778257884 | 17.78° C | 31% | 1011 hPa | 0 mm | - | 713 W/m² | - |
| 1778257580 | 17.78° C | 31% | 1010.8 hPa | 0 mm | - | 484 W/m² | - |
| 1778257278 | 17.78° C | 31% | 1011 hPa | 0 mm | - | 518 W/m² | - |
| 1778256974 | 17.22° C | 35% | 1010.9 hPa | 0 mm | - | 672 W/m² | - |
* Rain latest hour (hover to see other rain measurements)
** Current wind speed in m/s (hover to see current wind gust speed)